TimeMST,TemperatureF,Dew PointF,Humidity,Sea Level PressureIn,VisibilityMPH,Wind Direction,Wind SpeedMPH,Gust SpeedMPH,PrecipitationIn,Events,Conditions,WindDirDegrees,DateUTC
12:51 AM,39.9,19.0,43,30.10,10.0,Calm,Calm,-,N/A,,Unknown,0,2012-11-27 07:51:00
1:51 AM,39.9,19.0,43,30.08,10.0,Calm,Calm,-,N/A,,Clear,0,2012-11-27 08:51:00
2:51 AM,37.0,18.0,46,30.08,10.0,Calm,Calm,-,N/A,,Clear,0,2012-11-27 09:51:00
3:51 AM,37.0,17.1,44,30.07,10.0,East,3.5,-,N/A,,Clear,80,2012-11-27 10:51:00
4:51 AM,39.0,18.0,43,30.07,10.0,Calm,Calm,-,N/A,,Clear,0,2012-11-27 11:51:00
5:51 AM,43.0,19.0,38,30.10,10.0,East,6.9,-,N/A,,Clear,80,2012-11-27 12:51:00
6:51 AM,39.9,18.0,41,30.14,10.0,ESE,5.8,-,N/A,,Clear,120,2012-11-27 13:51:00
7:51 AM,39.9,18.0,41,30.16,10.0,Calm,Calm,-,N/A,,Clear,0,2012-11-27 14:51:00
8:51 AM,50.0,19.9,31,30.15,10.0,Calm,Calm,-,N/A,,Clear,0,2012-11-27 15:51:00
9:51 AM,55.0,21.0,27,30.17,10.0,Calm,Calm,-,N/A,,Clear,0,2012-11-27 16:51:00
10:51 AM,63.0,19.9,19,30.14,10.0,NNE,3.5,-,N/A,,Clear,30,2012-11-27 17:51:00
11:51 AM,66.9,19.0,16,30.12,10.0,NW,3.5,-,N/A,,Clear,320,2012-11-27 18:51:00
12:51 PM,69.1,18.0,14,30.09,10.0,West,10.4,-,N/A,,Clear,260,2012-11-27 19:51:00
1:51 PM,70.0,19.0,14,30.07,10.0,SW,11.5,-,N/A,,Clear,230,2012-11-27 20:51:00
2:51 PM,70.0,19.9,15,30.06,10.0,SW,8.1,-,N/A,,Clear,220,2012-11-27 21:51:00
3:51 PM,68.0,21.0,17,30.06,10.0,SW,9.2,-,N/A,,Clear,230,2012-11-27 22:51:00
4:51 PM,64.9,21.0,19,30.06,10.0,SSW,4.6,-,N/A,,Clear,210,2012-11-27 23:51:00
5:51 PM,55.9,19.9,25,30.06,10.0,South,6.9,-,N/A,,Clear,190,2012-11-28 00:51:00
6:51 PM,53.1,19.9,27,30.09,10.0,Calm,Calm,-,N/A,,Clear,0,2012-11-28 01:51:00
7:51 PM,48.0,19.0,32,30.11,10.0,ESE,4.6,-,N/A,,Clear,110,2012-11-28 02:51:00
8:51 PM,46.0,19.0,34,30.10,10.0,Calm,Calm,-,N/A,,Clear,0,2012-11-28 03:51:00
9:51 PM,48.9,21.0,33,30.09,10.0,SW,3.5,-,N/A,,Clear,220,2012-11-28 04:51:00
10:51 PM,46.0,21.0,37,30.08,10.0,Calm,Calm,-,N/A,,Clear,0,2012-11-28 05:51:00
11:51 PM,45.0,21.9,40,30.09,10.0,Calm,Calm,-,N/A,,Clear,0,2012-11-28 06:51:00